#datetime,building,power
2023-06-20T00:00:00,mcc,40.63
2023-06-20T00:01:00,mcc,40.05
2023-06-20T00:02:00,mcc,39.82
2023-06-20T00:03:00,mcc,39.34
2023-06-20T00:04:00,mcc,39.51
2023-06-20T00:05:00,mcc,36.16
2023-06-20T00:06:00,mcc,35.95
2023-06-20T00:07:00,mcc,36.68
2023-06-20T00:08:00,mcc,44.84
2023-06-20T00:09:00,mcc,36.01
2023-06-20T00:10:00,mcc,34.78
2023-06-20T00:11:00,mcc,34.93
2023-06-20T00:12:00,mcc,35.07
2023-06-20T00:13:00,mcc,35.58
2023-06-20T00:14:00,mcc,36.37
2023-06-20T00:15:00,mcc,35.83
2023-06-20T00:16:00,mcc,36.23
2023-06-20T00:17:00,mcc,35.27
2023-06-20T00:18:00,mcc,34.73
2023-06-20T00:19:00,mcc,34.53
2023-06-20T00:20:00,mcc,34.20
2023-06-20T00:21:00,mcc,36.44
2023-06-20T00:22:00,mcc,37.92
2023-06-20T00:23:00,mcc,36.43
2023-06-20T00:24:00,mcc,36.00
2023-06-20T00:25:00,mcc,35.94
2023-06-20T00:26:00,mcc,35.90
2023-06-20T00:27:00,mcc,37.14
2023-06-20T00:28:00,mcc,36.61
2023-06-20T00:29:00,mcc,33.81
2023-06-20T00:30:00,mcc,32.05
2023-06-20T00:31:00,mcc,31.96
2023-06-20T00:32:00,mcc,43.45
2023-06-20T00:33:00,mcc,43.89
2023-06-20T00:34:00,mcc,44.01
2023-06-20T00:35:00,mcc,43.92
2023-06-20T00:36:00,mcc,34.59
2023-06-20T00:37:00,mcc,34.82
2023-06-20T00:38:00,mcc,34.21
2023-06-20T00:39:00,mcc,34.12
2023-06-20T00:40:00,mcc,32.96
2023-06-20T00:41:00,mcc,33.33
2023-06-20T00:42:00,mcc,32.81
2023-06-20T00:43:00,mcc,32.02
2023-06-20T00:44:00,mcc,32.57
2023-06-20T00:45:00,mcc,34.69
2023-06-20T00:46:00,mcc,35.92
2023-06-20T00:47:00,mcc,44.22
2023-06-20T00:48:00,mcc,36.81
2023-06-20T00:49:00,mcc,35.32
2023-06-20T00:50:00,mcc,37.29
2023-06-20T00:51:00,mcc,36.75
2023-06-20T00:52:00,mcc,38.11
2023-06-20T00:53:00,mcc,39.19
2023-06-20T00:54:00,mcc,39.26
2023-06-20T00:55:00,mcc,36.57
2023-06-20T00:56:00,mcc,36.98
2023-06-20T00:57:00,mcc,34.34
2023-06-20T00:58:00,mcc,34.92
2023-06-20T00:59:00,mcc,34.99
2023-06-20T01:00:00,mcc,34.26
2023-06-20T01:01:00,mcc,33.19
2023-06-20T01:02:00,mcc,33.23
2023-06-20T01:03:00,mcc,33.19
2023-06-20T01:04:00,mcc,33.14
2023-06-20T01:05:00,mcc,34.20
2023-06-20T01:06:00,mcc,35.23
2023-06-20T01:07:00,mcc,35.32
2023-06-20T01:08:00,mcc,36.09
2023-06-20T01:09:00,mcc,35.94
2023-06-20T01:10:00,mcc,35.01
2023-06-20T01:11:00,mcc,34.12
2023-06-20T01:12:00,mcc,35.70
2023-06-20T01:13:00,mcc,35.00
2023-06-20T01:14:00,mcc,34.44
2023-06-20T01:15:00,mcc,33.84
2023-06-20T01:16:00,mcc,33.72
2023-06-20T01:17:00,mcc,33.74
2023-06-20T01:18:00,mcc,35.27
2023-06-20T01:19:00,mcc,34.93
2023-06-20T01:20:00,mcc,33.47
2023-06-20T01:21:00,mcc,34.65
2023-06-20T01:22:00,mcc,35.09
2023-06-20T01:23:00,mcc,34.55
2023-06-20T01:24:00,mcc,37.67
2023-06-20T01:25:00,mcc,37.05
2023-06-20T01:26:00,mcc,37.90
2023-06-20T01:27:00,mcc,36.89
2023-06-20T01:28:00,mcc,44.72
2023-06-20T01:29:00,mcc,37.80
2023-06-20T01:30:00,mcc,36.62
2023-06-20T01:31:00,mcc,35.42
2023-06-20T01:32:00,mcc,33.05
2023-06-20T01:33:00,mcc,31.96
2023-06-20T01:34:00,mcc,32.26
2023-06-20T01:35:00,mcc,31.18
2023-06-20T01:36:00,mcc,30.88
2023-06-20T01:37:00,mcc,31.51
2023-06-20T01:38:00,mcc,33.11
2023-06-20T01:39:00,mcc,33.47
2023-06-20T01:40:00,mcc,34.14
2023-06-20T01:41:00,mcc,34.21
2023-06-20T01:42:00,mcc,33.60
2023-06-20T01:43:00,mcc,34.90
2023-06-20T01:44:00,mcc,34.83
2023-06-20T01:45:00,mcc,35.50
2023-06-20T01:46:00,mcc,34.78
2023-06-20T01:47:00,mcc,34.73
2023-06-20T01:48:00,mcc,41.96
2023-06-20T01:49:00,mcc,34.62
2023-06-20T01:50:00,mcc,38.23
2023-06-20T01:51:00,mcc,35.99
2023-06-20T01:52:00,mcc,32.92
2023-06-20T01:53:00,mcc,32.89
2023-06-20T01:54:00,mcc,33.86
2023-06-20T01:55:00,mcc,33.61
2023-06-20T01:56:00,mcc,34.30
2023-06-20T01:57:00,mcc,36.85
2023-06-20T01:58:00,mcc,37.74
2023-06-20T01:59:00,mcc,38.67
2023-06-20T02:00:00,mcc,39.09
2023-06-20T02:01:00,mcc,39.19
2023-06-20T02:02:00,mcc,39.34
2023-06-20T02:03:00,mcc,38.26
2023-06-20T02:04:00,mcc,36.87
2023-06-20T02:05:00,mcc,35.50
2023-06-20T02:06:00,mcc,43.64
2023-06-20T02:07:00,mcc,34.60
2023-06-20T02:08:00,mcc,35.85
2023-06-20T02:09:00,mcc,35.53
2023-06-20T02:10:00,mcc,36.78
2023-06-20T02:11:00,mcc,35.91
2023-06-20T02:12:00,mcc,35.21
2023-06-20T02:13:00,mcc,36.67
2023-06-20T02:14:00,mcc,34.80
2023-06-20T02:15:00,mcc,34.33
2023-06-20T02:16:00,mcc,34.87
2023-06-20T02:17:00,mcc,35.73
2023-06-20T02:18:00,mcc,35.54
2023-06-20T02:19:00,mcc,35.21
2023-06-20T02:20:00,mcc,35.91
2023-06-20T02:21:00,mcc,36.03
2023-06-20T02:22:00,mcc,33.80
2023-06-20T02:23:00,mcc,34.83
2023-06-20T02:24:00,mcc,34.19
2023-06-20T02:25:00,mcc,41.74
2023-06-20T02:26:00,mcc,32.66
2023-06-20T02:27:00,mcc,34.72
2023-06-20T02:28:00,mcc,34.91
2023-06-20T02:29:00,mcc,36.06
2023-06-20T02:30:00,mcc,38.95
2023-06-20T02:31:00,mcc,40.43
2023-06-20T02:32:00,mcc,39.75
2023-06-20T02:33:00,mcc,37.74
2023-06-20T02:34:00,mcc,36.57
2023-06-20T02:35:00,mcc,34.25
2023-06-20T02:36:00,mcc,34.20
2023-06-20T02:37:00,mcc,33.36
2023-06-20T02:38:00,mcc,33.23
2023-06-20T02:39:00,mcc,32.05
2023-06-20T02:40:00,mcc,33.36
2023-06-20T02:41:00,mcc,32.78
2023-06-20T02:42:00,mcc,32.11
2023-06-20T02:43:00,mcc,33.73
2023-06-20T02:44:00,mcc,42.05
2023-06-20T02:45:00,mcc,32.64
2023-06-20T02:46:00,mcc,32.84
2023-06-20T02:47:00,mcc,33.39
2023-06-20T02:48:00,mcc,33.82
2023-06-20T02:49:00,mcc,34.18
2023-06-20T02:50:00,mcc,34.72
2023-06-20T02:51:00,mcc,46.86
2023-06-20T02:52:00,mcc,31.48
2023-06-20T02:53:00,mcc,31.47
2023-06-20T02:54:00,mcc,32.04
2023-06-20T02:55:00,mcc,32.51
2023-06-20T02:56:00,mcc,39.65
2023-06-20T02:57:00,mcc,39.15
2023-06-20T02:58:00,mcc,39.44
2023-06-20T02:59:00,mcc,39.97
2023-06-20T03:00:00,mcc,34.30
2023-06-20T03:01:00,mcc,33.56
2023-06-20T03:02:00,mcc,33.84
2023-06-20T03:03:00,mcc,33.98
2023-06-20T03:04:00,mcc,42.03
2023-06-20T03:05:00,mcc,32.81
2023-06-20T03:06:00,mcc,34.53
2023-06-20T03:07:00,mcc,32.72
2023-06-20T03:08:00,mcc,32.22
2023-06-20T03:09:00,mcc,32.99
2023-06-20T03:10:00,mcc,33.43
2023-06-20T03:11:00,mcc,34.18
2023-06-20T03:12:00,mcc,33.06
2023-06-20T03:13:00,mcc,33.84
2023-06-20T03:14:00,mcc,33.68
2023-06-20T03:15:00,mcc,33.34
2023-06-20T03:16:00,mcc,34.52
2023-06-20T03:17:00,mcc,34.64
2023-06-20T03:18:00,mcc,35.66
2023-06-20T03:19:00,mcc,34.95
2023-06-20T03:20:00,mcc,36.26
2023-06-20T03:21:00,mcc,35.29
2023-06-20T03:22:00,mcc,35.07
2023-06-20T03:23:00,mcc,36.34
2023-06-20T03:24:00,mcc,44.57
2023-06-20T03:25:00,mcc,36.98
2023-06-20T03:26:00,mcc,37.11
2023-06-20T03:27:00,mcc,37.57
2023-06-20T03:28:00,mcc,35.59
2023-06-20T03:29:00,mcc,35.91
2023-06-20T03:30:00,mcc,35.23
2023-06-20T03:31:00,mcc,35.41
2023-06-20T03:32:00,mcc,34.14
2023-06-20T03:33:00,mcc,33.18
2023-06-20T03:34:00,mcc,33.27
2023-06-20T03:35:00,mcc,32.72
2023-06-20T03:36:00,mcc,33.45
2023-06-20T03:37:00,mcc,32.90
2023-06-20T03:38:00,mcc,33.48
2023-06-20T03:39:00,mcc,31.09
2023-06-20T03:40:00,mcc,31.97
2023-06-20T03:41:00,mcc,32.17
2023-06-20T03:42:00,mcc,40.54
2023-06-20T03:43:00,mcc,33.32
2023-06-20T03:44:00,mcc,33.90
2023-06-20T03:45:00,mcc,33.93
2023-06-20T03:46:00,mcc,32.60
2023-06-20T03:47:00,mcc,32.20
2023-06-20T03:48:00,mcc,31.25
2023-06-20T03:49:00,mcc,31.92
2023-06-20T03:50:00,mcc,32.41
2023-06-20T03:51:00,mcc,32.15
2023-06-20T03:52:00,mcc,32.49
2023-06-20T03:53:00,mcc,33.28
2023-06-20T03:54:00,mcc,34.17
2023-06-20T03:55:00,mcc,35.56
2023-06-20T03:56:00,mcc,35.27
2023-06-20T03:57:00,mcc,36.41
2023-06-20T03:58:00,mcc,36.42
2023-06-20T03:59:00,mcc,34.28
2023-06-20T04:00:00,mcc,33.61
2023-06-20T04:01:00,mcc,41.83
2023-06-20T04:02:00,mcc,35.90
2023-06-20T04:03:00,mcc,38.77
2023-06-20T04:04:00,mcc,38.19
2023-06-20T04:05:00,mcc,36.70
2023-06-20T04:06:00,mcc,36.25
2023-06-20T04:07:00,mcc,35.38
2023-06-20T04:08:00,mcc,35.23
2023-06-20T04:09:00,mcc,34.97
2023-06-20T04:10:00,mcc,33.80
2023-06-20T04:11:00,mcc,32.70
2023-06-20T04:12:00,mcc,31.49
2023-06-20T04:13:00,mcc,33.39
2023-06-20T04:14:00,mcc,32.76
2023-06-20T04:15:00,mcc,33.96
2023-06-20T04:16:00,mcc,34.07
2023-06-20T04:17:00,mcc,34.03
2023-06-20T04:18:00,mcc,33.72
2023-06-20T04:19:00,mcc,32.52
2023-06-20T04:20:00,mcc,40.35
2023-06-20T04:21:00,mcc,32.55
2023-06-20T04:22:00,mcc,32.37
2023-06-20T04:23:00,mcc,34.78
2023-06-20T04:24:00,mcc,34.17
2023-06-20T04:25:00,mcc,33.74
2023-06-20T04:26:00,mcc,35.84
2023-06-20T04:27:00,mcc,34.89
2023-06-20T04:28:00,mcc,35.56
2023-06-20T04:29:00,mcc,35.20
2023-06-20T04:30:00,mcc,36.58
2023-06-20T04:31:00,mcc,37.54
2023-06-20T04:32:00,mcc,35.90
2023-06-20T04:33:00,mcc,36.03
2023-06-20T04:34:00,mcc,38.02
2023-06-20T04:35:00,mcc,37.42
2023-06-20T04:36:00,mcc,38.25
2023-06-20T04:37:00,mcc,37.33
2023-06-20T04:38:00,mcc,45.24
2023-06-20T04:39:00,mcc,35.07
2023-06-20T04:40:00,mcc,36.04
2023-06-20T04:41:00,mcc,35.05
2023-06-20T04:42:00,mcc,32.83
2023-06-20T04:43:00,mcc,33.84
2023-06-20T04:44:00,mcc,34.00
2023-06-20T04:45:00,mcc,33.93
2023-06-20T04:46:00,mcc,35.06
2023-06-20T04:47:00,mcc,35.38
2023-06-20T04:48:00,mcc,36.02
2023-06-20T04:49:00,mcc,35.52
2023-06-20T04:50:00,mcc,35.23
2023-06-20T04:51:00,mcc,34.41
2023-06-20T04:52:00,mcc,33.13
2023-06-20T04:53:00,mcc,32.62
2023-06-20T04:54:00,mcc,33.45
2023-06-20T04:55:00,mcc,34.06
2023-06-20T04:56:00,mcc,34.35
2023-06-20T04:57:00,mcc,34.62
2023-06-20T04:58:00,mcc,34.84
2023-06-20T04:59:00,mcc,33.33
2023-06-20T05:00:00,mcc,33.30
2023-06-20T05:01:00,mcc,33.12
2023-06-20T05:02:00,mcc,30.12
2023-06-20T05:03:00,mcc,31.25
2023-06-20T05:04:00,mcc,31.21
2023-06-20T05:05:00,mcc,32.48
2023-06-20T05:06:00,mcc,33.66
2023-06-20T05:07:00,mcc,34.41
2023-06-20T05:08:00,mcc,34.99
2023-06-20T05:09:00,mcc,34.74
2023-06-20T05:10:00,mcc,45.27
2023-06-20T05:11:00,mcc,45.22
2023-06-20T05:12:00,mcc,44.89
2023-06-20T05:13:00,mcc,44.69
2023-06-20T05:14:00,mcc,33.35
2023-06-20T05:15:00,mcc,33.22
2023-06-20T05:16:00,mcc,33.14
2023-06-20T05:17:00,mcc,32.18
2023-06-20T05:18:00,mcc,31.95
2023-06-20T05:19:00,mcc,31.61
2023-06-20T05:20:00,mcc,31.35
2023-06-20T05:21:00,mcc,32.68
2023-06-20T05:22:00,mcc,31.78
2023-06-20T05:23:00,mcc,33.61
2023-06-20T05:24:00,mcc,34.11
2023-06-20T05:25:00,mcc,33.96
2023-06-20T05:26:00,mcc,33.57
2023-06-20T05:27:00,mcc,33.48
2023-06-20T05:28:00,mcc,32.84
2023-06-20T05:29:00,mcc,32.09
2023-06-20T05:30:00,mcc,32.76
2023-06-20T05:31:00,mcc,30.44
2023-06-20T05:32:00,mcc,31.00
2023-06-20T05:33:00,mcc,30.98
2023-06-20T05:34:00,mcc,31.54
2023-06-20T05:35:00,mcc,38.96
2023-06-20T05:36:00,mcc,31.29
2023-06-20T05:37:00,mcc,32.19
2023-06-20T05:38:00,mcc,34.38
2023-06-20T05:39:00,mcc,32.89
2023-06-20T05:40:00,mcc,32.49
2023-06-20T05:41:00,mcc,32.72
2023-06-20T05:42:00,mcc,32.59
2023-06-20T05:43:00,mcc,34.37
2023-06-20T05:44:00,mcc,33.52
2023-06-20T05:45:00,mcc,33.57
2023-06-20T05:46:00,mcc,31.08
2023-06-20T05:47:00,mcc,30.47
2023-06-20T05:48:00,mcc,31.46
2023-06-20T05:49:00,mcc,31.81
2023-06-20T05:50:00,mcc,32.95
2023-06-20T05:51:00,mcc,33.93
2023-06-20T05:52:00,mcc,33.08
2023-06-20T05:53:00,mcc,32.37
2023-06-20T05:54:00,mcc,42.31
2023-06-20T05:55:00,mcc,35.30
2023-06-20T05:56:00,mcc,35.56
2023-06-20T05:57:00,mcc,36.71
2023-06-20T05:58:00,mcc,37.17
2023-06-20T05:59:00,mcc,34.87
2023-06-20T06:00:00,mcc,34.69
2023-06-20T06:01:00,mcc,33.61
2023-06-20T06:02:00,mcc,30.93
2023-06-20T06:03:00,mcc,34.84
2023-06-20T06:04:00,mcc,38.95
2023-06-20T06:05:00,mcc,38.22
2023-06-20T06:06:00,mcc,42.60
2023-06-20T06:07:00,mcc,41.95
2023-06-20T06:08:00,mcc,45.96
2023-06-20T06:09:00,mcc,45.04
2023-06-20T06:10:00,mcc,42.07
2023-06-20T06:11:00,mcc,42.56
2023-06-20T06:12:00,mcc,42.48
2023-06-20T06:13:00,mcc,42.73
2023-06-20T06:14:00,mcc,47.87
2023-06-20T06:15:00,mcc,54.27
2023-06-20T06:16:00,mcc,55.36
2023-06-20T06:17:00,mcc,52.87
2023-06-20T06:18:00,mcc,50.82
2023-06-20T06:19:00,mcc,50.84
2023-06-20T06:20:00,mcc,49.46
2023-06-20T06:21:00,mcc,49.89
2023-06-20T06:22:00,mcc,52.33
2023-06-20T06:23:00,mcc,49.56
2023-06-20T06:24:00,mcc,50.11
2023-06-20T06:25:00,mcc,50.15
2023-06-20T06:26:00,mcc,48.89
2023-06-20T06:27:00,mcc,50.51
2023-06-20T06:28:00,mcc,51.21
2023-06-20T06:29:00,mcc,50.50
2023-06-20T06:30:00,mcc,49.31
2023-06-20T06:31:00,mcc,48.84
2023-06-20T06:32:00,mcc,57.88
2023-06-20T06:33:00,mcc,47.12
2023-06-20T06:34:00,mcc,49.29
2023-06-20T06:35:00,mcc,48.11
2023-06-20T06:36:00,mcc,49.93
2023-06-20T06:37:00,mcc,52.22
2023-06-20T06:38:00,mcc,50.06
2023-06-20T06:39:00,mcc,48.73
2023-06-20T06:40:00,mcc,57.12
2023-06-20T06:41:00,mcc,59.68
2023-06-20T06:42:00,mcc,60.19
2023-06-20T06:43:00,mcc,60.94
2023-06-20T06:44:00,mcc,82.10
2023-06-20T06:45:00,mcc,57.74
2023-06-20T06:46:00,mcc,58.31
2023-06-20T06:47:00,mcc,57.17
2023-06-20T06:48:00,mcc,58.60
2023-06-20T06:49:00,mcc,59.05
2023-06-20T06:50:00,mcc,67.44
2023-06-20T06:51:00,mcc,59.01
2023-06-20T06:52:00,mcc,59.38
2023-06-20T06:53:00,mcc,58.10
2023-06-20T06:54:00,mcc,59.47
2023-06-20T06:55:00,mcc,58.41
2023-06-20T06:56:00,mcc,58.06
2023-06-20T06:57:00,mcc,57.62
2023-06-20T06:58:00,mcc,48.92
2023-06-20T06:59:00,mcc,48.60
2023-06-20T07:00:00,mcc,48.56
2023-06-20T07:01:00,mcc,52.93
2023-06-20T07:02:00,mcc,59.93
2023-06-20T07:03:00,mcc,52.88
2023-06-20T07:04:00,mcc,51.02
2023-06-20T07:05:00,mcc,51.57
2023-06-20T07:06:00,mcc,58.51
2023-06-20T07:07:00,mcc,58.66
2023-06-20T07:08:00,mcc,51.16
2023-06-20T07:09:00,mcc,51.09
2023-06-20T07:10:00,mcc,53.38
2023-06-20T07:11:00,mcc,52.66
2023-06-20T07:12:00,mcc,60.67
2023-06-20T07:13:00,mcc,52.99
2023-06-20T07:14:00,mcc,52.44
2023-06-20T07:15:00,mcc,51.71
2023-06-20T07:16:00,mcc,51.73
2023-06-20T07:17:00,mcc,57.95
2023-06-20T07:18:00,mcc,60.22
2023-06-20T07:19:00,mcc,82.28
2023-06-20T07:20:00,mcc,56.88
2023-06-20T07:21:00,mcc,54.93
2023-06-20T07:22:00,mcc,56.27
2023-06-20T07:23:00,mcc,56.23
2023-06-20T07:24:00,mcc,54.81
2023-06-20T07:25:00,mcc,55.10
2023-06-20T07:26:00,mcc,53.81
2023-06-20T07:27:00,mcc,54.39
2023-06-20T07:28:00,mcc,53.88
2023-06-20T07:29:00,mcc,53.84
2023-06-20T07:30:00,mcc,61.07
2023-06-20T07:31:00,mcc,54.06
2023-06-20T07:32:00,mcc,54.02
2023-06-20T07:33:00,mcc,56.11
2023-06-20T07:34:00,mcc,56.39
2023-06-20T07:35:00,mcc,55.82
2023-06-20T07:36:00,mcc,62.88
2023-06-20T07:37:00,mcc,56.13
2023-06-20T07:38:00,mcc,74.77
2023-06-20T07:39:00,mcc,55.62
2023-06-20T07:40:00,mcc,56.00
2023-06-20T07:41:00,mcc,53.93
2023-06-20T07:42:00,mcc,62.22
2023-06-20T07:43:00,mcc,56.58
2023-06-20T07:44:00,mcc,55.94
2023-06-20T07:45:00,mcc,56.01
2023-06-20T07:46:00,mcc,58.87
2023-06-20T07:47:00,mcc,58.18
2023-06-20T07:48:00,mcc,66.77
2023-06-20T07:49:00,mcc,60.62
2023-06-20T07:50:00,mcc,59.67
2023-06-20T07:51:00,mcc,58.95
2023-06-20T07:52:00,mcc,59.85
2023-06-20T07:53:00,mcc,59.90
2023-06-20T07:54:00,mcc,67.42
2023-06-20T07:55:00,mcc,58.56
2023-06-20T07:56:00,mcc,57.81
2023-06-20T07:57:00,mcc,58.63
2023-06-20T07:58:00,mcc,58.54
2023-06-20T07:59:00,mcc,60.89
2023-06-20T08:00:00,mcc,66.45
2023-06-20T08:01:00,mcc,57.90
2023-06-20T08:02:00,mcc,58.13
2023-06-20T08:03:00,mcc,56.86
2023-06-20T08:04:00,mcc,59.97
2023-06-20T08:05:00,mcc,59.34
2023-06-20T08:06:00,mcc,77.64
2023-06-20T08:07:00,mcc,57.34
2023-06-20T08:08:00,mcc,57.74
2023-06-20T08:09:00,mcc,57.20
2023-06-20T08:10:00,mcc,57.62
2023-06-20T08:11:00,mcc,66.21
2023-06-20T08:12:00,mcc,65.94
2023-06-20T08:13:00,mcc,65.97
2023-06-20T08:14:00,mcc,56.85
2023-06-20T08:15:00,mcc,56.88
2023-06-20T08:16:00,mcc,56.34
2023-06-20T08:17:00,mcc,57.47
2023-06-20T08:18:00,mcc,57.76
2023-06-20T08:19:00,mcc,65.99
2023-06-20T08:20:00,mcc,57.78
2023-06-20T08:21:00,mcc,59.85
2023-06-20T08:22:00,mcc,65.59
2023-06-20T08:23:00,mcc,57.94
2023-06-20T08:24:00,mcc,58.06
2023-06-20T08:25:00,mcc,57.81
2023-06-20T08:26:00,mcc,58.12
2023-06-20T08:27:00,mcc,56.85
2023-06-20T08:28:00,mcc,57.26
2023-06-20T08:29:00,mcc,55.74
2023-06-20T08:30:00,mcc,56.54
2023-06-20T08:31:00,mcc,58.15
2023-06-20T08:32:00,mcc,60.00
2023-06-20T08:33:00,mcc,59.59
2023-06-20T08:34:00,mcc,58.48
2023-06-20T08:35:00,mcc,66.22
2023-06-20T08:36:00,mcc,61.72
2023-06-20T08:37:00,mcc,63.34
2023-06-20T08:38:00,mcc,63.95
2023-06-20T08:39:00,mcc,63.42
2023-06-20T08:40:00,mcc,71.17
2023-06-20T08:41:00,mcc,64.14
2023-06-20T08:42:00,mcc,62.74
2023-06-20T08:43:00,mcc,60.93
2023-06-20T08:44:00,mcc,59.62
2023-06-20T08:45:00,mcc,58.87
2023-06-20T08:46:00,mcc,57.57
2023-06-20T08:47:00,mcc,61.51
2023-06-20T08:48:00,mcc,61.87
2023-06-20T08:49:00,mcc,60.98
2023-06-20T08:50:00,mcc,62.67
2023-06-20T08:51:00,mcc,63.92
2023-06-20T08:52:00,mcc,63.43
2023-06-20T08:53:00,mcc,69.41
2023-06-20T08:54:00,mcc,60.66
2023-06-20T08:55:00,mcc,58.55
2023-06-20T08:56:00,mcc,59.52
2023-06-20T08:57:00,mcc,60.20
2023-06-20T08:58:00,mcc,61.09
2023-06-20T08:59:00,mcc,69.27
2023-06-20T09:00:00,mcc,59.88
2023-06-20T09:01:00,mcc,56.77
2023-06-20T09:02:00,mcc,56.71
2023-06-20T09:03:00,mcc,65.66
2023-06-20T09:04:00,mcc,65.55
2023-06-20T09:05:00,mcc,72.79
2023-06-20T09:06:00,mcc,65.64
2023-06-20T09:07:00,mcc,59.60
2023-06-20T09:08:00,mcc,58.95
2023-06-20T09:09:00,mcc,58.84
2023-06-20T09:10:00,mcc,60.49
2023-06-20T09:11:00,mcc,61.22
2023-06-20T09:12:00,mcc,62.08
2023-06-20T09:13:00,mcc,61.28
2023-06-20T09:14:00,mcc,59.72
2023-06-20T09:15:00,mcc,59.08
2023-06-20T09:16:00,mcc,67.31
2023-06-20T09:17:00,mcc,67.30
2023-06-20T09:18:00,mcc,59.12
2023-06-20T09:19:00,mcc,60.26
2023-06-20T09:20:00,mcc,59.75
2023-06-20T09:21:00,mcc,60.62
2023-06-20T09:22:00,mcc,61.34
2023-06-20T09:23:00,mcc,70.19
2023-06-20T09:24:00,mcc,60.72
2023-06-20T09:25:00,mcc,58.76
2023-06-20T09:26:00,mcc,59.05
2023-06-20T09:27:00,mcc,58.15
2023-06-20T09:28:00,mcc,57.58
2023-06-20T09:29:00,mcc,66.06
2023-06-20T09:30:00,mcc,60.58
2023-06-20T09:31:00,mcc,60.33
2023-06-20T09:32:00,mcc,57.95
2023-06-20T09:33:00,mcc,57.86
2023-06-20T09:34:00,mcc,65.63
2023-06-20T09:35:00,mcc,57.77
2023-06-20T09:36:00,mcc,59.35
2023-06-20T09:37:00,mcc,59.68
2023-06-20T09:38:00,mcc,59.92
2023-06-20T09:39:00,mcc,76.61
2023-06-20T09:40:00,mcc,60.32
2023-06-20T09:41:00,mcc,67.90
2023-06-20T09:42:00,mcc,57.55
2023-06-20T09:43:00,mcc,58.35
2023-06-20T09:44:00,mcc,57.36
2023-06-20T09:45:00,mcc,57.09
2023-06-20T09:46:00,mcc,58.14
2023-06-20T09:47:00,mcc,67.00
2023-06-20T09:48:00,mcc,57.87
2023-06-20T09:49:00,mcc,58.18
2023-06-20T09:50:00,mcc,61.14
2023-06-20T09:51:00,mcc,60.08
2023-06-20T09:52:00,mcc,61.34
2023-06-20T09:53:00,mcc,77.95
2023-06-20T09:54:00,mcc,62.86
2023-06-20T09:55:00,mcc,62.54
2023-06-20T09:56:00,mcc,61.75
2023-06-20T09:57:00,mcc,59.99
2023-06-20T09:58:00,mcc,63.34
2023-06-20T09:59:00,mcc,68.90
2023-06-20T10:00:00,mcc,61.41
2023-06-20T10:01:00,mcc,60.83
2023-06-20T10:02:00,mcc,60.32
2023-06-20T10:03:00,mcc,59.49
2023-06-20T10:04:00,mcc,59.86
2023-06-20T10:05:00,mcc,67.24
2023-06-20T10:06:00,mcc,59.41
2023-06-20T10:07:00,mcc,61.54
2023-06-20T10:08:00,mcc,59.62
2023-06-20T10:09:00,mcc,58.84
2023-06-20T10:10:00,mcc,59.67
2023-06-20T10:11:00,mcc,66.10
2023-06-20T10:12:00,mcc,58.67
2023-06-20T10:13:00,mcc,61.68
2023-06-20T10:14:00,mcc,67.75
2023-06-20T10:15:00,mcc,67.60
2023-06-20T10:16:00,mcc,68.01
2023-06-20T10:17:00,mcc,79.91
2023-06-20T10:18:00,mcc,60.85
2023-06-20T10:19:00,mcc,60.86
2023-06-20T10:20:00,mcc,62.57
2023-06-20T10:21:00,mcc,61.89
2023-06-20T10:22:00,mcc,62.41
2023-06-20T10:23:00,mcc,70.69
2023-06-20T10:24:00,mcc,80.53
2023-06-20T10:25:00,mcc,65.63
2023-06-20T10:26:00,mcc,64.84
2023-06-20T10:27:00,mcc,64.89
2023-06-20T10:28:00,mcc,63.99
2023-06-20T10:29:00,mcc,70.89
2023-06-20T10:30:00,mcc,63.45
2023-06-20T10:31:00,mcc,78.76
2023-06-20T10:32:00,mcc,60.63
2023-06-20T10:33:00,mcc,61.25
2023-06-20T10:34:00,mcc,57.86
2023-06-20T10:35:00,mcc,59.15
2023-06-20T10:36:00,mcc,60.71
2023-06-20T10:37:00,mcc,59.20
2023-06-20T10:38:00,mcc,59.67
2023-06-20T10:39:00,mcc,62.78
2023-06-20T10:40:00,mcc,60.89
2023-06-20T10:41:00,mcc,68.08
2023-06-20T10:42:00,mcc,62.28
2023-06-20T10:43:00,mcc,62.28
2023-06-20T10:44:00,mcc,63.00
2023-06-20T10:45:00,mcc,62.74
2023-06-20T10:46:00,mcc,63.32
2023-06-20T10:47:00,mcc,71.67
2023-06-20T10:48:00,mcc,71.56
2023-06-20T10:49:00,mcc,73.02
2023-06-20T10:50:00,mcc,66.38
2023-06-20T10:51:00,mcc,79.39
2023-06-20T10:52:00,mcc,64.74
2023-06-20T10:53:00,mcc,70.32
2023-06-20T10:54:00,mcc,63.30
2023-06-20T10:55:00,mcc,62.47
2023-06-20T10:56:00,mcc,62.77
2023-06-20T10:57:00,mcc,69.51
2023-06-20T10:58:00,mcc,59.59
2023-06-20T10:59:00,mcc,60.15
2023-06-20T11:00:00,mcc,58.67
2023-06-20T11:01:00,mcc,65.29
2023-06-20T11:02:00,mcc,64.12
2023-06-20T11:03:00,mcc,58.05
2023-06-20T11:04:00,mcc,62.08
2023-06-20T11:05:00,mcc,69.58
2023-06-20T11:06:00,mcc,61.18
2023-06-20T11:07:00,mcc,58.53
2023-06-20T11:08:00,mcc,60.74
2023-06-20T11:09:00,mcc,60.84
2023-06-20T11:10:00,mcc,61.49
2023-06-20T11:11:00,mcc,59.52
2023-06-20T11:12:00,mcc,61.50
2023-06-20T11:13:00,mcc,60.20
2023-06-20T11:14:00,mcc,69.52
2023-06-20T11:15:00,mcc,64.26
2023-06-20T11:16:00,mcc,63.06
2023-06-20T11:17:00,mcc,62.99
2023-06-20T11:18:00,mcc,63.07
2023-06-20T11:19:00,mcc,63.85
2023-06-20T11:20:00,mcc,72.41
2023-06-20T11:21:00,mcc,62.97
2023-06-20T11:22:00,mcc,63.31
2023-06-20T11:23:00,mcc,61.05
2023-06-20T11:24:00,mcc,60.89
2023-06-20T11:25:00,mcc,63.30
2023-06-20T11:26:00,mcc,75.69
2023-06-20T11:27:00,mcc,61.36
2023-06-20T11:28:00,mcc,60.96
2023-06-20T11:29:00,mcc,61.36
2023-06-20T11:30:00,mcc,63.34
2023-06-20T11:31:00,mcc,62.23
2023-06-20T11:32:00,mcc,62.79
2023-06-20T11:33:00,mcc,60.73
2023-06-20T11:34:00,mcc,58.45
2023-06-20T11:35:00,mcc,61.26
2023-06-20T11:36:00,mcc,60.87
2023-06-20T11:37:00,mcc,60.07
2023-06-20T11:38:00,mcc,59.69
2023-06-20T11:39:00,mcc,58.54
2023-06-20T11:40:00,mcc,60.08
2023-06-20T11:41:00,mcc,63.25
2023-06-20T11:42:00,mcc,63.29
2023-06-20T11:43:00,mcc,63.01
2023-06-20T11:44:00,mcc,63.82
2023-06-20T11:45:00,mcc,70.64
2023-06-20T11:46:00,mcc,61.01
2023-06-20T11:47:00,mcc,88.07
2023-06-20T11:48:00,mcc,63.50
2023-06-20T11:49:00,mcc,63.91
2023-06-20T11:50:00,mcc,64.45
2023-06-20T11:51:00,mcc,70.93
2023-06-20T11:52:00,mcc,61.16
2023-06-20T11:53:00,mcc,60.87
2023-06-20T11:54:00,mcc,59.94
2023-06-20T11:55:00,mcc,61.22
2023-06-20T11:56:00,mcc,63.16
2023-06-20T11:57:00,mcc,62.18
2023-06-20T11:58:00,mcc,61.97
2023-06-20T11:59:00,mcc,59.17
2023-06-20T12:00:00,mcc,60.22
2023-06-20T12:01:00,mcc,59.91
2023-06-20T12:02:00,mcc,59.97
2023-06-20T12:03:00,mcc,67.67
2023-06-20T12:04:00,mcc,59.43
2023-06-20T12:05:00,mcc,59.36
2023-06-20T12:06:00,mcc,58.30
2023-06-20T12:07:00,mcc,62.18
2023-06-20T12:08:00,mcc,62.35
2023-06-20T12:09:00,mcc,60.50
2023-06-20T12:10:00,mcc,66.57
2023-06-20T12:11:00,mcc,59.18
2023-06-20T12:12:00,mcc,59.80
2023-06-20T12:13:00,mcc,61.23
2023-06-20T12:14:00,mcc,61.07
2023-06-20T12:15:00,mcc,61.37
2023-06-20T12:16:00,mcc,60.71
2023-06-20T12:17:00,mcc,61.45
2023-06-20T12:18:00,mcc,60.35
2023-06-20T12:19:00,mcc,60.10
2023-06-20T12:20:00,mcc,60.81
2023-06-20T12:21:00,mcc,59.20
2023-06-20T12:22:00,mcc,66.97
2023-06-20T12:23:00,mcc,59.21
2023-06-20T12:24:00,mcc,58.81
2023-06-20T12:25:00,mcc,58.31
2023-06-20T12:26:00,mcc,58.75
2023-06-20T12:27:00,mcc,58.50
2023-06-20T12:28:00,mcc,57.27
2023-06-20T12:29:00,mcc,56.71
2023-06-20T12:30:00,mcc,58.19
2023-06-20T12:31:00,mcc,57.04
2023-06-20T12:32:00,mcc,57.07
2023-06-20T12:33:00,mcc,58.74
2023-06-20T12:34:00,mcc,59.71
2023-06-20T12:35:00,mcc,62.12
2023-06-20T12:36:00,mcc,61.88
2023-06-20T12:37:00,mcc,62.01
2023-06-20T12:38:00,mcc,63.13
2023-06-20T12:39:00,mcc,62.85
2023-06-20T12:40:00,mcc,71.13
2023-06-20T12:41:00,mcc,62.91
2023-06-20T12:42:00,mcc,61.87
2023-06-20T12:43:00,mcc,62.45
2023-06-20T12:44:00,mcc,61.24
2023-06-20T12:45:00,mcc,59.77
2023-06-20T12:46:00,mcc,59.82
2023-06-20T12:47:00,mcc,58.95
2023-06-20T12:48:00,mcc,61.39
2023-06-20T12:49:00,mcc,58.28
2023-06-20T12:50:00,mcc,57.83
2023-06-20T12:51:00,mcc,57.40
2023-06-20T12:52:00,mcc,59.00
2023-06-20T12:53:00,mcc,60.93
2023-06-20T12:54:00,mcc,61.34
2023-06-20T12:55:00,mcc,58.85
2023-06-20T12:56:00,mcc,59.52
2023-06-20T12:57:00,mcc,62.20
2023-06-20T12:58:00,mcc,77.69
2023-06-20T12:59:00,mcc,60.01
2023-06-20T13:00:00,mcc,60.04
2023-06-20T13:01:00,mcc,59.48
2023-06-20T13:02:00,mcc,59.29
2023-06-20T13:03:00,mcc,60.00
2023-06-20T13:04:00,mcc,59.93
2023-06-20T13:05:00,mcc,59.90
2023-06-20T13:06:00,mcc,59.57
2023-06-20T13:07:00,mcc,60.24
2023-06-20T13:08:00,mcc,55.80
2023-06-20T13:09:00,mcc,55.37
2023-06-20T13:10:00,mcc,57.08
2023-06-20T13:11:00,mcc,57.52
2023-06-20T13:12:00,mcc,57.14
2023-06-20T13:13:00,mcc,73.20
2023-06-20T13:14:00,mcc,58.74
2023-06-20T13:15:00,mcc,58.23
2023-06-20T13:16:00,mcc,59.70
2023-06-20T13:17:00,mcc,61.30
2023-06-20T13:18:00,mcc,67.92